Weather History for Telfer, WE

Change the Weather History Date:

Monday, November 21, 2011

  Actual Average Record
Temperature  
Mean Temperature 76 °F -  
Max Temperature 89 °F - - ()
Min Temperature 62 °F - - ()
Cooling Degree Days 10    
Growing Degree Days 26 (Base 50)    
Moisture  
Dew Point 61 °F    
Average Humidity 60    
Maximum Humidity 88    
Minimum Humidity 30    
Precipitation  
Precipitation 0.00 in - - ()
Sea Level Pressure  
Sea Level Pressure 29.78 in    
Wind  
Wind Speed 15 mph ()    
Max Wind Speed 25 mph    
Max Gust Speed 33 mph    
T = Trace of Precipitation, MM = Missing Value Source: Averaged Metar Reports

Daily Weather History Graph

Daily Weather History Graph

Search for Another Location

Airport:

Trip Planner

Search our weather history database for the weather conditions in past years. The results will help you decide how hot, cold, wet, or windy it might be!

Date:

Astronomy

Nov. 21, 2011 Rise Set
Actual Time 4:59 AM WST 6:13 PM WST
Civil Twilight 4:35 AM WST 6:37 PM WST
Nautical Twilight 4:07 AM WST 7:06 PM WST
Astronomical Twilight 3:37 AM WST 7:36 PM WST
Moon 1:24 AM WST 2:02 PM WST
Length of Visible Light 14h 02m
Length of Day
13h 13m
Waning Crescent, 23% of the Moon is Illuminated
Nov 21
Waning Crescent
Nov 25
New
Dec 2
First Quarter
Dec 10
Full
Dec 18
Last Quarter

Hourly Weather History & Observations

Time (WST) Temp. Heat Index Dew Point Humidity Pressure Visibility Wind Dir Wind Speed Gust Speed Precip Events Conditions
12:00 AM 65 °F - 60 °F 78% 29.80 in - SSE 25.3 mph - -  
12:00 AM 64.4 °F - 60.8 °F 88% 29.86 in - SSE 25.3 mph - N/A   Unknown
1:02 AM 64.4 °F - 59.0 °F 83% 29.80 in - SSE 21.9 mph 33.4 mph N/A   Unknown
2:00 AM 64 °F - 59 °F 79% 29.76 in - SSE 19.6 mph - -  
3:00 AM 64 °F - 58 °F 77% 29.75 in - SSE 19.6 mph - -  
3:00 AM 64.4 °F - 59.0 °F 83% 29.80 in - SSE 19.6 mph - N/A   Unknown
4:00 AM 62.6 °F - 59.0 °F 88% 29.80 in - SSE 16.1 mph - N/A   Unknown
5:00 AM 63 °F - 59 °F 81% 29.75 in - SE 13.8 mph - -  
5:00 AM 62.6 °F - 59.0 °F 88% 29.80 in - SE 13.8 mph - N/A   Unknown
6:00 AM 65 °F - 58 °F 73% 29.77 in - ESE 13.8 mph - -  
6:00 AM 64.4 °F - 59.0 °F 83% 29.83 in - ESE 13.8 mph - N/A   Unknown
7:00 AM 69.8 °F - 59.0 °F 68% 29.83 in - East 12.7 mph - N/A   Unknown
8:00 AM 73 °F - 62 °F 61% 29.79 in - ESE 12.7 mph - -  
8:00 AM 73.4 °F - 62.6 °F 69% 29.86 in - ESE 12.7 mph - N/A   Unknown
9:00 AM 75 °F - 62 °F 55% 29.80 in - SE 13.8 mph - -  
9:00 AM 75.2 °F - 62.6 °F 65% 29.86 in - SE 13.8 mph - N/A   Unknown
11:00 AM 78 °F - 62 °F 49% 29.76 in - SE 11.5 mph - -  
11:00 AM 78.8 °F - 62.6 °F 57% 29.80 in - SE 11.5 mph - N/A   Unknown
12:00 PM 83 °F - 64 °F 42% 29.74 in - SSE 9.2 mph - -  
12:00 PM 82.4 °F 83.9 °F 64.4 °F 54% 29.80 in - SSE 9.2 mph - N/A   Unknown
1:00 PM 84.2 °F 85.0 °F 62.6 °F 48% 29.77 in - South 10.4 mph - N/A   Unknown
2:00 PM 87 °F - 62 °F 32% 29.69 in - SSE 10.4 mph - -  
2:00 PM 86.0 °F 86.1 °F 60.8 °F 43% 29.74 in - SSE 10.4 mph - N/A   Unknown
3:00 PM 87.8 °F 87.6 °F 60.8 °F 40% 29.74 in - SSE 10.4 mph - N/A   Unknown
5:00 PM 87 °F - 60 °F 30% 29.68 in - South 12.7 mph - -  
5:00 PM 87.8 °F 87.6 °F 60.8 °F 40% 29.74 in - South 12.7 mph - N/A   Unknown
6:00 PM 84 °F - 62 °F 37% 29.70 in - SSE 11.5 mph - -  
6:00 PM 84.2 °F 85.0 °F 62.6 °F 48% 29.74 in - SSE 11.5 mph - N/A   Unknown
7:00 PM 82.4 °F 83.4 °F 62.6 °F 51% 29.77 in - SSE 12.7 mph - N/A   Unknown
8:00 PM 80 °F - 62 °F 45% 29.75 in - SSE 12.7 mph - -  
8:00 PM 80.6 °F 81.8 °F 62.6 °F 54% 29.80 in - SSE 12.7 mph - N/A   Unknown
9:00 PM 79 °F - 62 °F 46% 29.76 in - SSE 12.7 mph - -  
9:00 PM 78.8 °F - 62.6 °F 57% 29.80 in - SSE 12.7 mph - N/A   Unknown
10:00 PM 77.0 °F - 60.8 °F 57% 29.80 in - SSE 18.4 mph - N/A   Unknown
11:00 PM 76 °F - 61 °F 49% 29.77 in - SSE 18.4 mph - -  
11:00 PM 75.2 °F - 60.8 °F 61% 29.83 in - SSE 18.4 mph - N/A   Unknown